Regional Weather Roundup
Issued by NWS Columbia, SC

Home | Current Version | Previous Version | Text Only | Print | Product List | Glossary On
Versions: 1 2 3 4 5 6 7 8 9 10 11 12 13 14 15 16 17 18 19 20 21 22 23 24 25 26 27 28 29 30 31 32 33 34 35 36 37 38 39 40 41 42 43 44 45 46 47 48 49 50
000
ASUS42 KCAE 042010
RWRCAE
REGIONAL WEATHER ROUNDUP
NATIONAL WEATHER SERVICE COLUMBIA SC
400 PM EDT MON MAY 04 2015

NOTE: "FAIR" INDICATES FEW OR NO CLOUDS BELOW 12,000 FEET WITH NO
SIGNIFICANT WEATHER AND/OR OBSTRUCTIONS TO VISIBILITY.

NOT ALL STATIONS ARE QUALITY CONTROLLED BY THE NATIONAL
WEATHER SERVICE. USE DATA WITH CAUTION...ESPECIALLY
DEWPOINT OBSERVATIONS.

SCZ001>056-GAZ040-063>065-077-042100-
...UPSTATE SOUTH CAROLINA...

CITY           SKY/WX    TMP DP  RH WIND       PRES   REMARKS
ANDERSON       SUNNY     80  51  36 W6        30.27F
LIBERTY        CLEAR     81  49  32 S7        30.27F
SPARTANBURG    MOSUNNY   82  46  28 SW6       30.27F
CLEMSON        MOSUNNY   81  48  31 SW6       30.28F
GREENVILLE     MOSUNNY   81  48  31 VRB6      30.28F
GREENWOOD      MOSUNNY   78  49  35 SW3       30.29F
GREER          PTSUNNY   78  49  35 S8G18     30.26F
ROCK HILL      MOSUNNY   81  50  33 VRB5      30.27F
CHESTER        PTCLDY    82  46  28 W6        30.28F
LAURENS        PTCLDY    79  59  50 SW5       30.27F


...CENTRAL SOUTH CAROLINA...

CITY           SKY/WX    TMP DP  RH WIND       PRES   REMARKS
COLUMBIA APT   MOSUNNY   82  48  30 W5        30.27F
COLUMBIA OWENS MOSUNNY   83  48  29 S8        30.28F
DARLINGTON     MOSUNNY   82  46  28 CALM      30.29F
FLORENCE       SUNNY     81  49  32 VRB3      30.28F
MCENTIRE ANGB  MOSUNNY   82  49  32 SE5       30.27F
ORANGEBURG     CLOUDY    77  56  48 SE7       30.29F
SUMTER SHAW    MOSUNNY   80  53  39 S9        30.27F
NEWBERRY       MOCLDY    81  50  34 S6        30.30F
AIKEN          FAIR      79  45  29 CALM      30.31F
BARNWELL       MOCLDY    81  54  39 E6        30.28F
MANNING        FAIR      77  45  31 CALM      30.29F
CAMDEN         FAIR      81  48  32 CALM      30.28F
LANCASTER      PTCLDY    81  50  34 S7        30.28F
WINNSBORO      PTCLDY    81  50  34 S3        30.28F


...EASTERN AND COASTAL SOUTH CAROLINA...

CITY           SKY/WX    TMP DP  RH WIND       PRES   REMARKS
MYRTLE BEACH   MOSUNNY   77  55  47 S12       30.34F
N MYRTLE BCH   SUNNY     75  58  55 S9        30.32F
CONWAY         FAIR      77  54  44 S8        30.31F
MARION         MOCLDY    81  50  34 SE8       30.29F
HARTSVILLE     FAIR      82  46  28 S8        30.29F
FLORENCE       SUNNY     81  49  32 VRB3      30.28F
DARLINGTON     MOSUNNY   82  46  28 CALM      30.29F
CHARLESTON APT PTSUNNY   78  53  41 SE13      30.30F
MOUNT PLEASANT FAIR      75  55  50 MISG      30.31F
WALTERBORO     CLOUDY    73  54  49 SE7       30.30F
BEAUFORT       PTSUNNY   78  57  48 E9G16     30.29F


...EASTERN GEORGIA...

CITY           SKY/WX    TMP DP  RH WIND       PRES   REMARKS
AUGUSTA BUSH F MOSUNNY   82  50  32 CALM      30.26F
AUGUSTA DANIEL MOSUNNY   82  48  30 E8        30.28F
THOMSON        SUNNY     83  54  36 CALM      30.31F
WASHINGTON     FAIR      84  57  39 SE6       30.28F
CLAXTON        CLOUDY    77  59  53 SE7       30.27F
SYLVANIA       CLOUDY    78  59  50 E6        30.28F
STATESBORO       N/A     79  56  44 SE5       30.27F
SAVANNAH       PTSUNNY   77  52  41 E15       30.29F


...SOUTHERN NORTH CAROLINA...

CITY           SKY/WX    TMP DP  RH WIND       PRES   REMARKS
CHARLOTTE      PTSUNNY   82  48  30 SW9       30.27F
MONROE         PTSUNNY   80  49  33 SW8       30.26F
WADESBORO      PTCLDY    81  54  39 SE6       30.26F
ROCKINGHAM     CLOUDY    78  50  36 CALM      30.28F
RUTHERFORDTON  CLOUDY    81  47  30 SW15      30.27F
ASHEVILLE      CLOUDY    74  48  39 S8        30.31F

$$


USA.gov is the U.S. government's official web portal to all federal, state and local government web resources and services.